DELTA 1 DEB

Satellite information

Favourite Embed

Satellite Type and Status

DEBRISIN ORBIT

Key statistics

Satellite DELTA 1 DEB at a glance.

Uptime

19037

Days in orbit

Revolutions

≈ 12.4

Per day

Orbit

SSO

Sun Synchronous Orbit

Inclination

102.4

Latest

Satellite identification and parameters

Extended collection of information and parameters for DELTA 1 DEB.

Object identification

Identified? True

Debris? True

Object name: DELTA 1 DEB

International designator: 1973-086GF

Object number (NORAD): 9976

Object ID (CCSDS): 9976

Country: UNITED STATES OF AMERICA (US)

Current information (Y/N): Y

RCS size: SMALL

Orbital parameters

Period: 116.558 minutes

Inclination: 102.374 deg

SMA: 7904.164 km

Apoapsis: 1561.191 km

Periapsis: 1490.867 km

RAAN: 7.6299 deg

Eccentricy: 0.00444855

Argument of periapsis: 202.9014 deg

Mean anomaly: 281.7092 deg

Mean motion: 12.35431987 rev/day

Mean motion (dot): 0.00000051 rev/day2

B* drag term: 0.00077193914 1/REarth

Two-line elements (TLE)

Creation date: Dec. 17, 2025, 7:48 p.m.

Reference frame: TEME

Reference center: EARTH

Epoch: Dec. 17, 2025, 2:56 p.m. UTC

TLE line 0: 0 DELTA 1 DEB

TLE line 1: 1 09976U 73086GF 25351.62235949 .00000051 00000-0 77194-3 0 9998

TLE line 2: 2 09976 102.3740 7.6299 0044485 202.9014 281.7092 12.35431987273820

Live tracking on map

Real-time ground track for satellite DELTA 1 DEB.

In-orbit conjunctions

A list of the most updated potential collisions computed for object DELTA 1 DEB.

Target Orbit TCA Probability of collision Miss distance Type
SL-14 R/B LEO 2025-10-13 07:52:10 0.00050641 145.0 (m) ROCKET BODY
SL-14 R/B LEO 2025-06-30 21:11:25 0.0001062107 132.0 (m) ROCKET BODY
COSMOS 508 LEO 2025-03-21 07:26:29 0.0001079821 636.0 (m) PAYLOAD

Associated space launch

Meteorological satellite using radiometric imaging

DELTA 1 DEB was lifted into orbit during the mission ‘Delta 0300 | NOAA 3’, on board a Delta 0300 space rocket.

The launch took place on Nov. 6, 1973, 5:02 p.m. from Space Launch Complex 2W.

For more information about the launch, click the button.

Launch to space Delta 0300 | NOAA 3
Delta 0300 | NOAA 3

Agency: N/A

Status: Launch Successful

Launch date: Nov. 6, 1973, 5:02 p.m. UTC

Rocket: Delta 0300

Launch pad: Space Launch Complex 2W

Location: Vandenberg SFB, CA, USA

...

Latest news about this satellite

There are no fresh news available about this satellite. Check back as we update our databases every day.


Newsletter sign-up

Weekly statistics, charts and insights to help you stay on top of the space industry.